Zurück zum Katalog

CZ-6A DEB

AktivPO
NORAD 60882·DEBRIS·🇨🇳 China

Gestartet Aug 6, 2024 von Taiyuan Satellite Launch Center

Loading…

Nächste Überflüge (nächste 24 Stunden)

TLE

AktuellSource: Space-Track

Epoche: Sep 14, 2026, 10:50 UTC

1 60882U 24140KM  26257.45180785  .00001525  00000-0  10184-2 0  9994
2 60882  88.9823 268.0217 0214474 353.8621   5.9929 13.90088059104989

Verfolge CZ-6A DEB in Echtzeit mit AllMySat

Download on the App Store